DECAYED

NOAA 17 DEB, 49481 (Decayed)

Orbit data source: Space-Track

NOAA 17 DEB, 49481 was space debris in SSO originally from a launch on Mon, 24 Jun 2002 UTC launched from the Air Force Western Test Range (AFWTR). Debris objects in space refer to the collection of defunct objects orbiting the Earth. Examples of debris include non-operational satellites, rocket bodies, and fragments generated from explosions, collisions, or faulty payload assembly.

Not visible in the next 10 days
Identifier
49481, 2002-032DK
Orbit
Decayed
Country
Flag of USUS
Related business
Manufacturer
Unknown
Mission
Decayed spacecraft
Bus & Motor
Unknown
Mass
Unknown
Launch date (UTC)
2002-06-24 (24 years ago)
Launch vehicle
Unknown
Launch site
Air Force Western Test Range (AFWTR)
Object type
Payload
Rocket body
Debris
Shape & HBR
Unknown shape, 0.1 m
Radar Cross Section
Medium (>0.1 m² and <1 m²)

Expand to show TLE details & history
Last TLE update: 3 months ago

TLE from 3 months ago
0 NOAA 17 DEB
1 49481U 02032DK  26079.48456561  .00627126  00000-0  13103-1 0  9999
2 49481  98.6638  94.3828 0013949 133.3302 226.9107 15.43008885252168
Epoch: 2026-03-20T11:37Z
TLE epoch observation values (Epoch: 2026-03-20T11:37:46.468Z)
Latitude
-0.00003°
Longitude
101.92022°
Altitude
446.82 km
Speed
7.64 km/s
True Right ascension
06h 17m 31s
True Declination
0° 00' 00"
Sunlit
Object was in daylight at epoch
Visualization orbit readout
Latitude
Unknown
Longitude
Unknown
Altitude
Unknown
Speed
Unknown
Apparent Right ascension
Unknown
Apparent Declination
Unknown
Sunlit
N/A
Visualization observer readout
Local Sidereal Time
21:35:10
Azimuth
Unknown
Elevation
Unknown
Doppler factor
Unknown
Orbital elements
Apogee altitude
443.732 km
Perigee altitude
424.726 km
Semi-major axis
6,812.366 km
Eccentricity
0.00139
Inclination
98.6638°
RAAN
94.3828°
Arg. of periapsis
133.3302°
True anomaly
226.79411°
Mean anomaly
226.9107°
Eccentric anomaly
226.85239°
Mean motion
3.86008 °/min
Orbital period
93.26 mins
BSTAR
0.013103
Loading maneuver chart data...
Computing Atmospheric mass density...

Documentation

Showing up to 5 results
|